Weather History for Dayton Wright, OH

Change the Weather History Date:

Friday, March 15, 2013

  Actual Average (KFFO) Record (KFFO)
Temperature  
Mean Temperature 39 °F -  
Max Temperature 50 °F 46 °F 72 °F (2012)
Min Temperature 28 °F 27 °F 19 °F (1997)
Degree Days  
Heating Degree Days 26    
Moisture  
Dew Point 31 °F    
Average Humidity 74    
Maximum Humidity 92    
Minimum Humidity 56    
Precipitation  
Precipitation 0.00 in - - ()
Sea Level Pressure  
Sea Level Pressure 29.98 in    
Wind  
Wind Speed 6 mph (SW)    
Max Wind Speed 12 mph    
Max Gust Speed 17 mph    
Visibility 10 miles    
Events      
Averages and records for this station are not official NWS values.
T = Trace of Precipitation, MM = Missing Value Source: NWS Daily Summary

Daily Weather History Graph

Daily Weather History Graph

Search for Another Location

Airport:

Trip Planner

Search our weather history database for the weather conditions in past years. The results will help you decide how hot, cold, wet, or windy it might be!

Date:

Astronomy

Mar. 15, 2013 Rise Set
Actual Time 7:47 AM EDT 7:44 PM EDT
Civil Twilight 7:21 AM EDT 8:10 PM EDT
Nautical Twilight 6:49 AM EDT 8:42 PM EDT
Astronomical Twilight 6:18 AM EDT 9:13 PM EDT
Moon 9:38 AM EDT (3/15) 11:56 PM EDT (3/15)
Length of Visible Light 12h 49m
Length of Day
11h 56m
Waxing Crescent, 15% of the Moon is Illuminated
Mar 15
Waxing Crescent
Mar 19
First Quarter
Mar 27
Full
Apr 3
Last Quarter
Apr 10
New

Hourly Weather History & Observations

Time (EDT) Temp. Windchill Dew Point Humidity Pressure Visibility Wind Dir Wind Speed Gust Speed Precip Events Conditions
12:53 AM 35.1 °F 29.3 °F 21.9 °F 59% 30.17 in 10.0 mi WSW 6.9 mph - N/A   Clear
1:53 AM 33.1 °F 27.7 °F 25.0 °F 72% 30.15 in 10.0 mi SW 5.8 mph - N/A   Clear
2:53 AM 33.1 °F 26.1 °F 27.0 °F 78% 30.15 in 10.0 mi SW 8.1 mph - N/A   Mostly Cloudy
3:53 AM 30.9 °F 25.2 °F 27.0 °F 85% 30.11 in 10.0 mi SSW 5.8 mph - N/A   Partly Cloudy
4:53 AM 28.9 °F 25.2 °F 27.0 °F 92% 30.08 in 10.0 mi SSW 3.5 mph - N/A   Clear
5:53 AM 30.0 °F 26.5 °F 27.0 °F 88% 30.08 in 10.0 mi South 3.5 mph - N/A   Clear
6:53 AM 28.0 °F 22.8 °F 25.0 °F 88% 30.06 in 9.0 mi South 4.6 mph - N/A   Clear
7:53 AM 28.0 °F 22.8 °F 26.1 °F 92% 30.04 in 7.0 mi South 4.6 mph - N/A   Clear
8:53 AM 30.9 °F 24.3 °F 28.0 °F 89% 30.03 in 7.0 mi SSW 6.9 mph - N/A   Clear
9:53 AM 33.1 °F 26.9 °F 30.0 °F 89% 30.01 in 9.0 mi SSW 6.9 mph - N/A   Clear
10:53 AM 36.0 °F 32.1 °F 30.0 °F 79% 30.00 in 10.0 mi WSW 4.6 mph - N/A   Clear
11:53 AM 39.0 °F 32.3 °F 30.9 °F 73% 29.97 in 10.0 mi SW 10.4 mph - N/A   Clear
12:53 PM 41.0 °F 36.4 °F 32.0 °F 70% 29.96 in 10.0 mi SW 6.9 mph - N/A   Clear
1:53 PM 44.1 °F 40.1 °F 33.1 °F 65% 29.96 in 10.0 mi SW 6.9 mph - N/A   Clear
2:53 PM 46.0 °F 41.9 °F 33.1 °F 61% 29.93 in 10.0 mi West 8.1 mph - N/A   Clear
3:53 PM 48.0 °F - 33.1 °F 56% 29.90 in 10.0 mi WSW 8.1 mph 17.3 mph N/A   Clear
4:53 PM 48.9 °F - 34.0 °F 56% 29.89 in 10.0 mi WSW 11.5 mph - N/A   Clear
5:53 PM 48.9 °F - 34.0 °F 56% 29.90 in 10.0 mi WSW 9.2 mph - N/A   Scattered Clouds
6:53 PM 50.0 °F - 35.1 °F 57% 29.89 in 10.0 mi West 4.6 mph - N/A   Overcast
7:53 PM 48.0 °F - 37.0 °F 66% 29.88 in 10.0 mi Calm Calm - 0.00 in   Overcast
8:53 PM 46.9 °F - 37.0 °F 68% 29.89 in 10.0 mi West 4.6 mph - N/A   Overcast
9:53 PM 45.0 °F 41.8 °F 37.9 °F 76% 29.88 in 10.0 mi South 5.8 mph - N/A   Overcast
10:53 PM 45.0 °F 42.6 °F 37.9 °F 76% 29.85 in 10.0 mi North 4.6 mph - N/A   Overcast
11:53 PM 45.0 °F 41.8 °F 37.0 °F 74% 29.81 in 10.0 mi East 5.8 mph - N/A   Overcast